MDT,Max TemperatureF,Mean TemperatureF,Min TemperatureF,Max Dew PointF,MeanDew PointF,Min DewpointF,Max Humidity, Mean Humidity, Min Humidity, Max Sea Level PressureIn, Mean Sea Level PressureIn, Min Sea Level PressureIn, Max VisibilityMiles, Mean VisibilityMiles, Min VisibilityMiles, Max Wind SpeedMPH, Mean Wind SpeedMPH, Max Gust SpeedMPH,PrecipitationIn, CloudCover, Events, WindDirDegrees
2013-8-1,72,63,54,58,52,44,100,74,48,30.10,30.00,29.95,10,10,5,21,8,25,0.30,5,Rain,28
2013-8-2,74,64,54,56,52,44,100,69,38,30.09,29.98,29.91,10,8,1,29,10,33,0.43,5,Rain-Thunderstorm,98
2013-8-3,74,60,46,55,50,46,100,72,44,30.16,30.11,30.05,10,6,0,15,6,18,0.07,1,Fog-Rain,329
2013-8-4,82,65,47,52,46,38,100,61,21,30.09,30.02,29.95,10,10,10,14,6,21,0.00,0,,96
2013-8-5,86,68,49,55,48,39,96,58,20,30.02,29.93,29.83,10,10,10,26,7,32,0.06,2,Thunderstorm,271
2013-8-6,84,66,47,52,46,36,96,57,18,30.04,29.98,29.95,10,10,10,17,7,22,0.00,1,,262
2013-8-7,84,66,48,51,48,44,93,60,26,29.98,29.95,29.91,10,10,10,21,9,25,0.00,1,,54
2013-8-8,81,65,49,53,51,48,100,68,35,30.09,30.03,29.96,10,10,9,22,10,28,0.00,1,,47
2013-8-9,81,67,52,53,52,50,100,71,42,30.18,30.08,30.00,10,10,10,15,6,18,0.00,2,,76
2013-8-10,85,70,54,54,51,47,93,62,31,30.03,29.98,29.94,10,10,10,24,7,31,0.00,0,,69
2013-8-11,80,69,57,56,51,43,73,55,37,30.02,29.99,29.96,10,10,10,18,5,24,0.00,0,,70
2013-8-12,88,70,51,53,47,43,89,55,21,30.09,30.00,29.95,10,10,9,31,8,38,0.00,0,,174
2013-8-13,87,69,50,55,50,43,100,62,23,30.09,30.05,29.97,10,10,7,21,7,24,0.03,1,Rain-Thunderstorm,65
2013-8-14,88,71,54,55,47,40,84,51,18,30.04,29.97,29.93,10,10,10,16,7,22,T,0,,162
2013-8-15,97,75,52,47,39,23,72,40,7,29.95,29.90,29.82,10,10,10,17,6,24,0.00,0,,207
2013-8-16,101,78,54,43,37,24,51,29,7,29.92,29.85,29.77,10,10,10,26,7,38,0.00,0,,267
2013-8-17,94,76,57,44,42,38,57,36,15,29.96,29.90,29.84,10,10,10,18,8,23,T,0,Rain,257
2013-8-18,92,73,54,54,43,35,77,46,14,29.94,29.89,29.83,10,10,10,24,10,33,T,1,Rain,237
2013-8-19,93,75,56,41,37,32,47,30,13,29.90,29.84,29.76,10,10,6,30,15,38,0.00,0,,230
2013-8-20,90,73,55,41,37,30,47,30,13,29.94,29.86,29.80,10,10,7,22,8,29,0.00,0,,258
2013-8-21,82,65,47,41,35,29,52,35,18,30.15,30.06,29.96,10,10,10,14,6,17,0.00,0,,22
2013-8-22,90,70,49,48,42,36,63,42,21,30.05,29.95,29.80,10,10,10,17,6,23,0.00,0,,131
2013-8-23,90,78,65,48,44,38,47,32,17,29.78,29.73,29.66,10,10,6,26,12,32,0.00,0,,204
2013-8-24,90,74,58,49,39,25,64,37,9,29.93,29.79,29.73,10,10,9,25,9,30,0.00,0,,197
2013-8-25,92,75,57,51,44,38,67,42,16,29.91,29.84,29.77,10,10,8,22,10,26,0.01,1,Rain,209
2013-8-26,92,73,53,54,48,38,83,50,17,29.95,29.89,29.82,10,9,2,37,6,53,0.11,1,Rain,210
2013-8-27,92,72,52,51,45,34,83,48,13,29.97,29.89,29.83,10,10,7,21,8,25,0.00,0,,195
2013-8-28,92,73,53,55,48,42,67,44,21,29.98,29.88,29.80,10,9,2,30,7,36,0.06,1,Rain,218
2013-8-29,94,74,53,55,50,40,89,53,16,30.02,29.95,29.83,10,10,10,36,7,43,0.01,1,Rain,198
2013-8-30,90,70,50,57,45,32,96,55,14,30.02,29.96,29.88,10,10,9,28,9,33,0.00,1,,267
2013-8-31,81,65,49,44,38,31,68,42,16,30.13,30.07,30.02,10,10,10,15,6,20,0.00,0,,55